This is the latest recevied weather packets stored in our database for station/object N5SRF. If no packets are shown the sender has not sent any weather packets the latest 10 day(s).
| Time | Temp. | Humidity | Pressure | Rain* | Wind** | Luminosity | Snow |
|---|---|---|---|---|---|---|---|
| 1777851602 | 23.89° C | 49% | 1021.8 hPa | 0 mm | - | 44 W/m² | - |
| 1777851298 | 23.89° C | 48% | 1021.7 hPa | 0 mm | - | 50 W/m² | - |
| 1777850994 | 24.44° C | 48% | 1021.9 hPa | 0 mm | - | 44 W/m² | - |
| 1777850691 | 24.44° C | 47% | 1021.6 hPa | 0 mm | - | 53 W/m² | - |
| 1777850384 | 25° C | 46% | 1021.9 hPa | 0 mm | - | 79 W/m² | - |
| 1777850081 | 25° C | 46% | 1021.7 hPa | 0 mm | - | 89 W/m² | - |
| 1777849777 | 25.56° C | 46% | 1021.7 hPa | 0 mm | - | 138 W/m² | - |
| 1777849474 | 25.56° C | 46% | 1022 hPa | 0 mm | - | 226 W/m² | - |
| 1777849172 | 25.56° C | 45% | 1022 hPa | 0 mm | - | 240 W/m² | - |
| 1777848868 | 25.56° C | 45% | 1021.9 hPa | 0 mm | - | 261 W/m² | - |
| 1777848564 | 25.56° C | 47% | 1021.9 hPa | 0 mm | - | 266 W/m² | - |
| 1777848261 | 25.56° C | 47% | 1022.1 hPa | 0 mm | - | 269 W/m² | - |
| 1777847959 | 25.56° C | 46% | 1022.1 hPa | 0 mm | - | 308 W/m² | - |
| 1777847656 | 25.56° C | 45% | 1022.2 hPa | 0 mm | - | 153 W/m² | - |
| 1777847351 | 25.56° C | 46% | 1022.1 hPa | 0 mm | - | 218 W/m² | - |
| 1777847050 | 25.56° C | 48% | 1022.2 hPa | 0 mm | - | 151 W/m² | - |
| 1777846748 | 26.11° C | 43% | 1022.5 hPa | 0 mm | - | 319 W/m² | - |
| 1777846446 | 26.67° C | 44% | 1022.2 hPa | 0 mm | - | 341 W/m² | - |
| 1777846142 | 26.11° C | 43% | 1022.3 hPa | 0 mm | - | 366 W/m² | - |
| 1777845839 | 26.11° C | 41% | 1022.3 hPa | 0 mm | - | 381 W/m² | - |
| 1777845536 | 26.11° C | 42% | 1022.2 hPa | 0 mm | - | 419 W/m² | - |
| 1777845233 | 26.67° C | 42% | 1022.5 hPa | 0 mm | - | 398 W/m² | - |
| 1777844930 | 26.67° C | 42% | 1022.6 hPa | 0 mm | - | 431 W/m² | - |
| 1777844627 | 26.67° C | 41% | 1022.5 hPa | 0 mm | - | 260 W/m² | - |
| 1777844325 | 27.22° C | 38% | 1022.5 hPa | 0 mm | - | 475 W/m² | - |
* Rain latest hour (hover to see other rain measurements)
** Current wind speed in m/s (hover to see current wind gust speed)